This demonstration page uses our WeatherBlox Daily Observations layout. Learn more.

38.80484, -77.04692

Hourly Observations for April 28, 2019

Temp ( °F °C ) Dew Point ( °F °C ) Humidity (%) Winds ( mph kmh ) Pressure ( in mb ) Visibility ( mi km ) Precip ( " mm )
12:52 am 00:52 Cloudy with Light Rain 56 13.3 47 8.3 72 72 N 10 17 29.97 1015 10 16.0934 0.03 0.762
1:52 am 01:52 Cloudy 55 12.8 46 7.8 72 72 N 10 17 29.94 1014 10 16.0934 0 0.0254
2:52 am 02:52 Cloudy 55 12.8 46 7.8 72 72 SSE 7 11 29.93 1014 10 16.0934 0 0.0254
3:52 am 03:52 Cloudy with Light Rain 55 12.8 46 7.8 72 72 E 3 6 29.9 1013 10 16.0934 0 0.0254
4:52 am 04:52 Cloudy with Light Rain 55 12.8 47 8.3 74 74 ESE 8 13 29.88 1012 10 16.0934 0 0.0254
5:52 am 05:52 Cloudy 55 12.8 47 8.3 74 74 Calm 29.87 1012 10 16.0934 0 0.0254
6:52 am 06:52 Cloudy 56 13.3 46 7.8 70 70 S 3 6 29.89 1012 10 16.0934 0 0
7:52 am 07:52 Cloudy 59 15 48 8.9 67 67 VRB 3 6 29.89 1012 10 16.0934 0 0
8:52 am 08:52 Cloudy 59 15 47 8.3 64 64 Calm 29.91 1013 10 16.0934 0 0.0254
9:52 am 09:52 Cloudy 59 15 49 9.4 69 69 NE 3 6 29.89 1012 10 16.0934 0 0
10:52 am 10:52 Cloudy 60 15.6 49 9.4 67 67 SE 3 6 29.89 1012 10 16.0934 0 0
11:52 am 11:52 Cloudy 61 16.1 49 9.4 65 65 SSE 5 7 29.89 1012 10 16.0934 0 0
1:52 pm 13:52 Partly Cloudy 70 21.1 54 12.2 57 57 SSE 7 11 29.87 1011 10 16.0934 0 0
2:52 pm 14:52 Mostly Cloudy 71 21.7 52 11.1 51 51 Calm 29.89 1012 9 14.48406 0 0
3:52 pm 15:52 Mostly Cloudy 73 22.8 54 12.2 51 51 NNW 17 28 29.93 1013 10 16.0934 0 0
4:52 pm 16:52 Partly Cloudy 71 21.7 51 10.6 49 49 NNW 16 26 29.98 1015 10 16.0934 0 0
5:52 pm 17:52 Partly Cloudy 68 20 49 9.4 51 51 NNW 20 31 30.05 1018 10 16.0934 0 0
6:52 pm 18:52 Mostly Sunny 63 17.2 46 7.8 54 54 NNW 21 33 30.1 1019 10 16.0934 0 0
7:52 pm 19:52 Partly Cloudy 59 15 45 7.2 60 60 N 18 30 30.15 1021 10 16.0934 0 0
8:52 pm 20:52 Mostly Clear 56 13.3 43 6.1 62 62 N 18 30 30.21 1023 10 16.0934 0 0
9:52 pm 21:52 Mostly Clear 54 12.2 41 5 62 62 N 16 26 30.25 1024 10 16.0934 0 0
10:52 pm 22:52 Mostly Clear 53 11.7 38 3.3 57 57 NNE 13 20 30.27 1025 10 16.0934 0 0
11:52 pm 23:52 Mostly Clear 52 11.1 39 3.9 61 61 NNE 10 17 30.29 1026 10 16.0934 0 0

Powered by AerisWeather